Miscellaneous Local Product
Issued by NWS North Platte, NE

Home | Current Version | Previous Version | Text Only | Print | Product List | Glossary On
Versions: 1 2 3 4 5 6 7 8 9 10 11 12 13 14 15 16 17 18 19 20 21 22 23 24 25 26 27 28 29 30 31 32 33 34 35 36 37 38 39 40 41 42 43 44 45 46 47 48 49 50
813
AXUS43 KLBF 101810
MISLBF


WESTERN AND NORTH CENTRAL NEBRASKA HOURLY WEATHER ROUNDUP
NATIONAL WEATHER SERVICE NORTH PLATTE NE
1200 PM CST WED FEB 10 2016

NOTE: "FAIR" INDICATES FEW OR NO CLOUDS BELOW 12,000 FEET WITH NO
SIGNIFICANT WEATHER AND/OR OBSTRUCTIONS TO VISIBILITY.

NOTE: STATIONS NOT REPORTING VARIABLES SUCH AS SKY/WEATHER OR
PRESSURE ARE PROVIDED BY THE NEBRASKA DEPARTMENT OF
ROADS...RAWS...AND APRS NETWORKS...AND ARE NOT UNDER
NATIONAL WEATHER SERVICE QUALITY CONTROL.

...OBSERVATIONS IN AND NEAR THE EASTERN PANHANDLE OF NEBRASKA...

CITY           SKY/WX    TMP DP  RH WIND       PRES   REMARKS
PINE RIDGE     SUNNY     55  25  31 W15       29.96F
CHADRON        SUNNY     57  27  31 W17       29.99F
ALLIANCE       SUNNY     42  30  62 W8        30.01R
SIDNEY         SUNNY     49  28  44 W13       30.05F
CRESCENT LAKE    N/A     54  27  35 NW14G21     N/A
BIG SPRINGS      N/A     47  33  59 W9          N/A
$$

...OBSERVATIONS IN NORTH CENTRAL NEBRASKA...

CITY           SKY/WX    TMP DP  RH WIND       PRES   REMARKS
VALENTINE      SUNNY     53  28  38 NW13G23   29.88S
THEDFORD       SUNNY     59  30  32 NW15      29.91S
AINSWORTH      SUNNY     55  26  32 NW15G25   29.88S
O`NEILL        SUNNY     47  32  56 NW7       29.85S
ORD            SUNNY     44  30  57 W8        29.88S
BROKEN BOW     SUNNY     51  30  44 W10       29.90S
VALENTINE NWR    N/A     56  26  31 NW16G23     N/A
BUTTE            N/A     46  34  62 W12G20      N/A
HALSEY           N/A     57  27  31 W9G20       N/A
CHAMBERS         N/A     50  32  49 W5          N/A
EWING            N/A     40  31  70 W7          N/A
$$

...OBSERVATIONS IN SOUTHWEST NEBRASKA AND FAR NORTHEAST COLORADO...

CITY           SKY/WX    TMP DP  RH WIND       PRES   REMARKS
WRAY           FAIR      53  28  37 W10       30.06F
HOLYOKE        FAIR      48  32  53 W12       30.05S
IMPERIAL       SUNNY     46  27  47 W18       30.01F
OGALLALA       SUNNY     50  25  38 NW24G32   29.99F
NORTH PLATTE   SUNNY     46  29  51 W13       29.95F
MCCOOK         SUNNY     46  28  49 W17       29.98F
LEXINGTON      SUNNY     44  30  58 NW15      29.93F
PAXTON           N/A     47  34  61 W6          N/A
STAPLETON        N/A     53  32  45 W3          N/A
GOTHENBURG       N/A     48  28  46 NW8         N/A
CALLAWAY         N/A     46  32  58 NW14        N/A
$$

...OBSERVATIONS IN CENTRAL LINCOLN COUNTY AREA...

CITY           SKY/WX    TMP DP  RH WIND       PRES   REMARKS
N.P. AIRPORT   SUNNY     46  29  51 W13       29.95F
N.P. DOWNTOWN    N/A     49  32  52 W6G14       N/A
N.P. SOUTHEAST   N/A     50  32  50 NW7G14      N/A
N.P. HILLCREST   N/A     49  33  54 NW13        N/A
$$

...SOME OBSERVATIONS FROM AROUND THE REGION...

CITY           SKY/WX    TMP DP  RH WIND       PRES   REMARKS
DENVER         MOSUNNY   60  19  20 W15       30.16F
LARAMIE        CLOUDY    45  20  36 SW20      30.21F
CHEYENNE       SUNNY     53  17  24 W25G37    30.15F
SCOTTSBLUFF    SUNNY     56  28  34 NW15      30.04S
RAPID CITY     SUNNY     63  19  18 NW31G43   29.90R
BISMARCK       CLOUDY    25  16  68 E6        29.97R WCI  18
PIERRE         SUNNY     42  29  59 NW10      29.86R
WINNER         FAIR      51  28  41 NW18      29.85F
SIOUX FALLS    CLOUDY    17  12  80 E16       29.96F WCI   2
OMAHA          MOSUNNY   33  20  58 S9        29.94F WCI  25
GRAND ISLAND   SUNNY     42  29  59 W9        29.89F
KANSAS CITY    PTSUNNY   38  17  42 S21       30.01F WCI  28
WICHITA        SUNNY     49  27  42 SW14      30.01F
OKLAHOMA CITY  SUNNY     59  28  30 SW20G25   30.14F
LIBERAL        SUNNY     70  27  19 W13       30.10F
HAYS           SUNNY     55  28  35 W18       29.99F
GOODLAND       SUNNY     54  27  35 NW10      30.08S
$$




USA.gov is the U.S. government's official web portal to all federal, state and local government web resources and services.